[Iaude] MPEC V12: 2023 VD [a=1.41,e=0.23,i=21.1,H=23.7]
    mpec at marsden.cfa.harvard.edu 
    mpec at marsden.cfa.harvard.edu
       
    Fri Nov  3 09:45:48 EDT 2023
    
    
  
M.P.E.C. 2023-V12                              Issued 2023 November 3, 13:44 UT
     The Minor Planet Electronic Circulars contain information on unusual
         minor planets, routine data on comets and natural satellites,
         and occasional editorial announcements.  They are published
    on behalf of Division F of the International Astronomical Union by the
          Minor Planet Center, Smithsonian Astrophysical Observatory,
                          Cambridge, MA 02138, U.S.A.
			  
             Prepared using the Tamkin Foundation Computer Network
                              MPC at CFA.HARVARD.EDU
            URL https://www.minorplanetcenter.net/    ISSN 1523-6714
                                    2023 VD                                     
Observations:
     K23V00D*1C2023 11 01.32086602 13 32.531+47 10 15.20         20.03GVEV012G96
     K23V00D 1C2023 11 01.32607402 13 34.338+47 09 22.14         20.21GVEV012G96
     K23V00D 1C2023 11 01.33129902 13 36.091+47 08 28.50         19.78GVEV012G96
     K23V00D KC2023 11 01.39526402 13 57.856+46 57 23.83         19.8 GVEV012H01
     K23V00D KC2023 11 01.39870302 13 59.300+46 56 52.15         19.97GVEV012I52
     K23V00D KC2023 11 01.39931902 13 59.524+46 56 46.00         19.74GVEV012I52
     K23V00D  C2023 11 01.39958002 13 59.363+46 56 38.88         20.3 GVEV012H01
     K23V00D KC2023 11 01.39994702 13 59.722+46 56 39.23         19.91GVEV012I52
     K23V00D KC2023 11 01.40057102 13 59.920+46 56 32.86         19.69GVEV012I52
     K23V00D KC2023 11 01.40120102 14 00.168+46 56 26.05         19.90GVEV012I52
     K23V00D KC2023 11 01.41965502 14 06.431+46 53 09.20         20.3 GVEV012H01
     K23V00D  C2023 11 01.42659002 14 08.900+46 51 56.31         20.4 GVEV012H01
     K23V00D KC2023 11 02.11460802 18 36.85 +44 51 24.7          19.9 GVEV012H21
     K23V00D KC2023 11 02.11610802 18 38.91 +44 51 02.5          20.0 GXEV012858
     K23V00D KC2023 11 02.11740502 18 37.81 +44 50 55.1          19.6 GVEV012H21
     K23V00D KC2023 11 02.12020202 18 38.76 +44 50 25.4          19.6 GVEV012H21
     K23V00D KC2023 11 02.12158902 18 40.83 +44 50 04.4          20.4 GXEV012858
     K23V00D KC2023 11 02.12299702 18 39.68 +44 49 55.5          20.4 GVEV012H21
     K23V00D KC2023 11 02.12579302 18 40.63 +44 49 25.8          20.7 GVEV012H21
     K23V00D KC2023 11 02.12687802 18 42.65 +44 49 08.6          19.6 GXEV012858
     K23V00D KC2023 11 02.20693102 19 10.340+44 34 59.02         20.07GVEV012I52
     K23V00D KC2023 11 02.20845202 19 10.826+44 34 42.85         20.28GVEV012I52
     K23V00D KC2023 11 02.20997402 19 11.356+44 34 26.69         19.96GVEV012I52
     K23V00D KC2023 11 02.21148102 19 11.838+44 34 10.34         19.50GVEV012I52
     K23V00D 1C2023 11 02.37830802 20 06.454+44 03 43.88         19.56GVEV012G96
     K23V00D 1C2023 11 02.38347602 20 08.149+44 02 46.68         19.96GVEV012G96
     K23V00D 1C2023 11 02.38865002 20 09.906+44 01 47.42         19.38GVEV012G96
     K23V00D 1C2023 11 02.39381802 20 11.612+44 00 50.65         20.21GVEV012G96
     K23V00D KC2023 11 03.20287302 25 07.76 +41 27 53.5          20.2 GVEV012H21
     K23V00D KC2023 11 03.20436502 25 08.23 +41 27 36.1          20.4 GVEV012H21
     K23V00D KC2023 11 03.20716102 25 09.11 +41 27 03.5          20.1 GVEV012H21
     K23V00D KC2023 11 03.20995602 25 10.00 +41 26 31.1          20.3 GVEV012H21
     K23V00D KC2023 11 03.22652902 25 17.22 +41 23 22.1          19.9 GXEV012858
     K23V00D KC2023 11 03.23341102 25 19.37 +41 22 02.3          19.9 GXEV012858
     K23V00D KC2023 11 03.24029402 25 21.54 +41 20 42.1          19.6 GXEV012858
Observer details:
858 Tebbutt Observatory, Edgewood.  Observer F. B. Zoltowski.  0.51-m f/8.1
    Schmidt-Cassegrain + CCD.
G96 Mt. Lemmon Survey.  Observer J. B. Fazekas.  Measurers E. C. Beshore, D.
    Fay, J. B. Fazekas, D. C. Fuls, A. R. Gibbs, A. D. Grauer, H. Groeller, J.
    K. Hogan, R. A. Kowalski, S. M. Larson, G. J. Leonard, D. Rankin, R. L.
    Seaman, F. C. Shelly, K. W. Wierzchos.  1.5-m reflector + 10K CCD.
H01 Magdalena Ridge Observatory, Socorro.  Observers W. H. Ryan, E. V. Ryan.
    Measurer W. H. Ryan.  2.4-m f/8.9 Ritchey-Chretien + CCD.
H21 Astronomical Research Observatory, Westfield.  Observer R. Holmes.
    Measurers T. Linder, R. Holmes, L. Horn.  0.76-m f/3.0 astrograph + CCD.
I52 Steward Observatory, Mt. Lemmon Station.  Observer R. A. Kowalski.
    Measurers E. C. Beshore, D. Fay, J. B. Fazekas, D. C. Fuls, A. R. Gibbs,
    A. D. Grauer, H. Groeller, J. K. Hogan, R. A. Kowalski, S. M. Larson, G.
    J. Leonard, D. Rankin, R. L. Seaman, F. C. Shelly, K. W. Wierzchos.  1.0-m
    prime focus + CCD.
Orbital elements:
2023 VD                                                  Earth MOID = 0.0912 AU
Epoch 2023 Sept. 13.0 TT = JDT 2460200.5                Veres                   
M 327.67260              (2000.0)            P               Q                  
n   0.58747855     Peri.  177.37454     +0.71565399     -0.64715483             
a   1.4119133      Node   226.74405     +0.63406731     +0.75971713             
e   0.2335401      Incl.   21.14639     +0.29291298     -0.06340748             
P   1.68           H   23.77          G   0.15           U   8                  
Residuals in seconds of arc
231101 G96  0.2-  0.1+    231102 H21  0.2+  0.2+    231102 G96  0.0   0.3-
231101 G96  0.2+  0.2+    231102 858  0.4-  0.0     231102 G96  0.2-  0.2+
231101 G96  0.1-  0.1+    231102 H21  0.3+  0.3+    231102 G96 (0.3+  1.1-)
231101 H01  0.1+  0.2-    231102 H21  0.3+  0.3+    231102 G96  0.2+  0.0
231101 I52  0.1+  0.1-    231102 858  0.2-  0.4-    231103 H21  0.0   0.1+
231101 I52  0.2+  0.2+    231102 H21  0.1-  0.1+    231103 H21  0.0   0.0
231101 H01  0.1+  0.1-    231102 H21  0.1-  0.1+    231103 H21  0.0   0.1-
231101 I52  0.0   0.0     231102 858  0.4-  0.4-    231103 H21  0.1+  0.0
231101 I52  0.2-  0.1+    231102 I52  0.0   0.1-    231103 858  0.1-  0.1+
231101 I52  0.1+  0.1-    231102 I52  0.2-  0.0     231103 858  0.3-  0.1+
231101 H01  0.0   0.0     231102 I52  0.1+  0.1+    231103 858  0.2-  0.2-
231101 H01  0.0   0.2-    231102 I52  0.1-  0.1-
Ephemeris:
2023 VD                  a,e,i = 1.41, 0.23, 21                  q = 1.0822
Date    TT    R. A. (2000) Decl.     Delta      r    Elong.  Phase     V
2023 10 04    23 01 20.8 +72 09 00   0.2555  1.1151   110.3    57.3    23.1
...
2023 10 19    00 33 12.4 +68 15 52   0.1701  1.0927   120.6    51.7    22.0
...
2023 10 27    01 36 17.7 +59 06 45   0.1283  1.0857   133.1    41.9    21.1
...
2023 11 02    02 17 50.0 +45 12 07   0.1038  1.0829   149.2    28.0    20.3
2023 11 03    02 23 54.4 +42 07 09   0.1007  1.0826   152.6    24.9    20.1
2023 11 04    02 29 43.4 +38 49 04   0.09805 1.0824   156.3    21.6    20.0
...
2023 11 10    02 59 20.2 +15 50 25   0.09193 1.0824   178.9     1.0    18.9
...
2023 11 18    03 27 00.0 -11 41 07   0.1111  1.0857   149.3    27.7    20.4
...
2023 12 03    03 57 20.1 -33 57 47   0.1896  1.1016   123.4    48.4    22.2
M. P. C. Staff               (C) Copyright 2023 MPC           M.P.E.C. 2023-V12
    
    
More information about the Iaude
mailing list